Volver al catálogo

STARLINK-33935

ActivoComunicacionesVLEO
NORAD 63791·PAYLOAD·🇺🇸 United States

Lanzado May 2, 2025 desde Cape Canaveral Space Force Station

Loading…

Próximos Pases (próximas 24 horas)

TLE

ActualizadoSource: CelesTrak SupGP

Época: Sep 14, 2026, 21:42 UTC

1 63791C 25091S   26257.90465278  .00058794  00000+0  21297-2 0  2578
2 63791  43.0002  64.2695 0001530 273.2488 186.2816 15.27545457    10

Sigue STARLINK-33935 en tiempo real con AllMySat

Download on the App Store